Miscellaneous Local Product
Issued by NWS Hastings, NE

Home | Current Version | Previous Version | Text Only | Print | Product List | Glossary Off
Versions: 1 2 3 4 5 6 7 8 9 10 11 12 13 14 15 16 17 18 19 20 21 22 23 24 25 26 27 28 29 30 31 32 33 34 35 36 37 38 39 40 41 42 43 44 45 46 47 48 49 50

319
AXUS43 KGID 052302
MISGRI

GID CWA HOURLY WEATHER ROUNDUP
NATIONAL WEATHER SERVICE HASTINGS NE
500 PM CST FRI FEB 05 2016

NOTE: "FAIR" INDICATES FEW OR NO CLOUDS BELOW 12,000 FEET WITH NO
SIGNIFICANT WEATHER AND/OR OBSTRUCTIONS TO VISIBILITY.

...SOUTH CENTRAL NEBRASKA...

CITY           SKY/WX    TMP DP  RH WIND       PRES   REMARKS
GRAND ISLAND   CLOUDY    36  29  75 W6        30.21R WCI  31
HASTINGS       MOCLDY    36  29  75 W6        30.21R WCI  31
ORD            CLOUDY    36  29  75 NW14      30.20R WCI  27
YORK           CLOUDY    36  32  87 SW8       30.22R WCI  29
AURORA         CLOUDY    35  32  89 W6        30.20R WCI  30
LEXINGTON      CLOUDY    37  28  72 NW14      30.23R WCI  28
HOLDREGE       CLOUDY    35  27  74 W9        30.22R WCI  28
HEBRON         PTCLDY    33  26  75 W8        30.24R WCI  27

...NEBRASKA PANHANDLE...

CITY           SKY/WX    TMP DP  RH WIND       PRES   REMARKS
CHADRON        SUNNY     36  24  62 W17       30.23S WCI  26
ALLIANCE       SUNNY     32  22  66 NW17      30.22S WCI  21
SCOTTSBLUFF    SUNNY     32  19  58 W10       30.27R WCI  24
SIDNEY         SUNNY     29  19  66 NW16      30.25S WCI  17

...WESTERN AND NORTH CENTRAL NEBRASKA...

CITY           SKY/WX    TMP DP  RH WIND       PRES   REMARKS
VALENTINE      CLEAR     34  25  69 NW9       30.21S WCI  27
AINSWORTH      CLOUDY    33  27  76 NW14      30.20F WCI  24
ONEILL         CLOUDY    35  32  90 NW17G23   30.19R WCI  24
BROKEN BOW     CLOUDY    36  26  67 NW17      30.21R WCI  26
IMPERIAL       SUNNY     35  22  58 NW15      30.25R WCI  25
NORTH PLATTE   PTCLDY    37  24  59 NW15      30.23R WCI  28
MCCOOK         SUNNY     36  26  67 NW12      30.25R WCI  28

...EASTERN NEBRASKA...

CITY           SKY/WX    TMP DP  RH WIND       PRES   REMARKS
NORFOLK        CLOUDY    37  30  75 NW9       30.17R WCI  30
SO SIOUX CITY  CLOUDY    31  25  78 S7        30.22R WCI  24
TEKAMAH        CLOUDY    31  27  85 S12       30.23S WCI  22
COLUMBUS       CLOUDY    36  25  64 SW6       30.21S WCI  31
ALBION         CLOUDY    37  29  72 NW12      30.18S WCI  30
OMAHA EPPLEY   CLOUDY    31  28  89 S8        30.25R FOG     WCI  23
OFFUTT AFB     CLOUDY    32  28  86 S5        30.24S FOG     WCI  27
MILLARD        CLOUDY    32  28  86 S3        30.24R
LINCOLN        CLOUDY    34  29  82 SW8       30.25R WCI  27
NEBRASKA CITY  CLOUDY    31  31 100 S8        30.25S FOG     WCI  24
BEATRICE       CLOUDY    36  29  77 SW5       30.24S WCI  32
FALLS CITY     CLOUDY    36  28  73 E5        30.27F WCI  32

...NORTHERN KANSAS...

CITY           SKY/WX    TMP DP  RH WIND       PRES   REMARKS
GOODLAND       SUNNY     34  22  61 NW14      30.26R WCI  25
HILL CITY      SUNNY     37  27  67 NW13      30.26R WCI  29
NORTON         MOCLDY    36  27  69 W10       30.24R WCI  28
PHILLIPSBURG   CLEAR     37  28  70 W12       30.25R WCI  30
BELOIT         CLEAR     39  25  56 W8        30.24S WCI  34
HAYS           SUNNY     37  21  52 NW14      30.25S WCI  29
RUSSELL        CLEAR     37  29  72 W8        30.23F WCI  31
CONCORDIA      PTCLDY    41  27  57 W8        30.23F
SALINA         PTCLDY    48  20  32 NW6       30.25S
TOPEKA         CLOUDY    44  22  41 CALM      30.27F



USA.gov is the U.S. government's official web portal to all federal, state and local government web resources and services.